Weather History for Rotterdam, Netherlands

Change the Weather History Date:

Tuesday, July 16, 2013

  Actual Average Record
Temperature  
Mean Temperature 64 °F -  
Max Temperature 78 °F 70 °F 91 °F (2003)
Min Temperature 51 °F 55 °F 46 °F (2001)
Growing Degree Days 14 (Base 50)    
Moisture  
Dew Point 55 °F    
Average Humidity 71    
Maximum Humidity 100    
Minimum Humidity 37    
Precipitation  
Precipitation 0.00 in - - ()
Sea Level Pressure  
Sea Level Pressure 30.22 in    
Wind  
Wind Speed 2 mph ()    
Max Wind Speed 8 mph    
Max Gust Speed -    
Visibility 5.4 miles    
Events Fog    
Averages and records for this station are not official NWS values.
T = Trace of Precipitation, MM = Missing Value Source: Averaged Metar Reports

Daily Weather History Graph

Daily Weather History Graph

Search for Another Location

Airport:

Trip Planner

Search our weather history database for the weather conditions in past years. The results will help you decide how hot, cold, wet, or windy it might be!

Date:

Astronomy

Jul. 16, 2013 Rise Set
Actual Time 5:41 AM CEST 9:54 PM CEST
Civil Twilight 4:56 AM CEST 10:39 PM CEST
Nautical Twilight 3:50 AM CEST 11:44 PM CEST
Astronomical Twilight 2:20 AM CEST 1:15 AM CEST
Moon 2:57 PM CEST (7/16) 12:28 AM CEST (7/16)
Length of Visible Light 17h 42m
Length of Day
16h 12m
First Quarter, 53% of the Moon is Illuminated
Jul 16
First Quarter
Jul 22
Full
Jul 29
Last Quarter
Aug 6
New
Aug 14
First Quarter

Hourly Weather History & Observations

Time (CEST) Temp. Dew Point Humidity Pressure Visibility Wind Dir Wind Speed Gust Speed Precip Events Conditions
12:00 AM 58 °F 57 °F 96% 30.24 in 2 mi NNW 2.2 mph - -   Mist
12:25 AM 57.2 °F 57.2 °F 100% 30.21 in 1.5 mi North 2.3 mph - N/A   Mist
12:55 AM 55.4 °F 55.4 °F 100% 30.21 in - Calm Calm - N/A Fog Fog
1:00 AM 56 °F 56 °F 100% 30.24 in 0 mi Calm Calm - - Fog Fog
1:25 AM 57.2 °F 57.2 °F 100% 30.21 in 0.7 mi Calm Calm - N/A   Mist
1:55 AM 55.4 °F 55.4 °F 100% 30.21 in 1.0 mi Calm Calm - N/A   Mist
2:00 AM 54 °F 54 °F 100% 30.24 in 0 mi NW 2.2 mph - - Fog Fog
2:25 AM 53.6 °F 53.6 °F 100% 30.21 in 0.6 mi NNW 2.3 mph - N/A Fog Fog
2:55 AM 55.4 °F 55.4 °F 100% 30.21 in 0.3 mi North 2.3 mph - N/A Fog Fog
3:25 AM 53.6 °F 53.6 °F 100% 30.21 in - Variable 1.2 mph - N/A Fog Fog
3:55 AM 53.6 °F 53.6 °F 100% 30.21 in 0.2 mi Calm Calm - N/A Fog Fog
4:00 AM 53 °F 53 °F 100% 30.23 in 0 mi Calm Calm - - Fog Fog
4:25 AM 55.4 °F 55.4 °F 100% 30.21 in 0.4 mi NNE 1.2 mph - N/A Fog Fog
4:55 AM 53.6 °F 53.6 °F 100% 30.21 in 1.3 mi Calm Calm - N/A   Partly Cloudy
5:00 AM 52 °F 52 °F 100% 30.23 in 1 mi Calm Calm - - Fog Fog
5:25 AM 51.8 °F 51.8 °F 100% 30.21 in 0.8 mi Calm Calm - N/A   Overcast
5:55 AM 53.6 °F 53.6 °F 100% 30.21 in 0.2 mi Calm Calm - N/A Fog Fog
6:00 AM 54 °F 54 °F 100% 30.23 in 0 mi Calm Calm - - Fog Fog
6:25 AM 53.6 °F 53.6 °F 100% 30.21 in 1.4 mi Calm Calm - N/A   Mostly Cloudy
6:55 AM 53.6 °F 53.6 °F 100% 30.21 in - Calm Calm - N/A   Mist
7:00 AM 55 °F 55 °F 99% 30.23 in 2 mi Calm Calm - - Fog Fog
7:25 AM 55.4 °F 55.4 °F 100% 30.21 in - Variable 1.2 mph - N/A   Mist
7:55 AM 59.0 °F 59.0 °F 100% 30.21 in - NNW 2.3 mph - N/A   Mist
8:00 AM 60 °F 59 °F 95% 30.25 in 2 mi NW 2.2 mph - -   Mist
8:25 AM 60.8 °F 60.8 °F 100% 30.24 in 1.7 mi Variable 2.3 mph - N/A   Mist
8:55 AM 66.2 °F 60.8 °F 83% 30.24 in 3.1 mi Variable 1.2 mph - N/A   Mist
9:00 AM 67 °F 61 °F 76% 30.25 in 4 mi North 2.2 mph - -   Mist
9:25 AM 68.0 °F 59.0 °F 73% 30.24 in 5.0 mi Variable 1.2 mph - N/A   Unknown
9:55 AM 69.8 °F 57.2 °F 64% 30.24 in 6.2 mi Variable 1.2 mph - N/A   Unknown
10:00 AM 71 °F 57 °F 51% 30.25 in 7 mi 2.2 mph - -  
10:25 AM 71.6 °F 57.2 °F 60% 30.24 in 6.2 mi Variable 2.3 mph - N/A   Unknown
10:55 AM 73.4 °F 57.2 °F 57% 30.24 in 6.2 mi Variable 2.3 mph - N/A   Unknown
11:00 AM 72 °F 56 °F 48% 30.25 in 9 mi 2.2 mph - -   Mostly Cloudy
11:25 AM 71.6 °F 57.2 °F 60% 30.24 in 6.2 mi Variable 2.3 mph - N/A   Unknown
11:55 AM 73.4 °F 57.2 °F 57% 30.24 in 6.2 mi Variable 2.3 mph - N/A   Unknown
12:00 PM 73 °F 56 °F 45% 30.25 in 10 mi North 2.2 mph - -  
12:25 PM 73.4 °F 55.4 °F 53% 30.24 in 6.2 mi NNW 3.5 mph - N/A   Unknown
12:55 PM 73.4 °F 57.2 °F 57% 30.24 in 6.2 mi NE 3.5 mph - N/A   Unknown
1:00 PM 74 °F 55 °F 42% 30.24 in 12 mi 2.2 mph - -  
1:25 PM 75.2 °F 51.8 °F 44% 30.21 in 6.2 mi Variable 2.3 mph - N/A   Unknown
1:55 PM 75.2 °F 55.4 °F 50% 30.21 in 6.2 mi NNE 3.5 mph - N/A   Unknown
2:00 PM 76 °F 56 °F 39% 30.24 in 11 mi 2.2 mph - -   Partly Cloudy
2:25 PM 75.2 °F 55.4 °F 50% 30.21 in 6.2 mi NW 3.5 mph - N/A   Unknown
2:55 PM 77.0 °F 53.6 °F 44% 30.21 in 6.2 mi WNW 3.5 mph - N/A   Unknown
3:00 PM 76 °F 54 °F 37% 30.23 in 18 mi NW 4.5 mph - -   Mostly Cloudy
3:25 PM 77.0 °F 55.4 °F 47% 30.21 in 6.2 mi North 5.8 mph - N/A   Unknown
3:55 PM 78.8 °F 59.0 °F 51% 30.21 in 6.2 mi NW 5.8 mph - N/A   Unknown
4:00 PM 77 °F 56 °F 38% 30.23 in 17 mi NW 6.7 mph - -  
4:25 PM 77.0 °F 55.4 °F 47% 30.21 in 6.2 mi NNW 8.1 mph - N/A   Unknown
4:55 PM 75.2 °F 55.4 °F 50% 30.21 in 6.2 mi North 6.9 mph - N/A   Unknown
5:00 PM 76 °F 57 °F 41% 30.23 in 22 mi NNW 6.7 mph - -   Overcast
5:25 PM 75.2 °F 55.4 °F 50% 30.21 in 6.2 mi North 6.9 mph - N/A   Unknown
5:55 PM 73.4 °F 53.6 °F 50% 30.21 in 6.2 mi North 4.6 mph - N/A   Unknown
6:00 PM 74 °F 54 °F 38% 30.23 in 19 mi North 4.5 mph - -   Overcast
6:25 PM 73.4 °F 53.6 °F 50% 30.21 in 6.2 mi North 4.6 mph - N/A   Unknown
6:55 PM 71.6 °F 53.6 °F 53% 30.21 in 6.2 mi North 4.6 mph - N/A   Unknown
7:00 PM 72 °F 54 °F 43% 30.22 in 16 mi North 4.5 mph - -   Overcast
7:25 PM 71.6 °F 53.6 °F 53% 30.21 in 6.2 mi North 4.6 mph - N/A   Unknown
7:55 PM 69.8 °F 55.4 °F 60% 30.21 in 6.2 mi North 4.6 mph - N/A   Unknown
8:00 PM 70 °F 54 °F 48% 30.23 in 25 mi North 4.5 mph - -   Partly Cloudy
8:25 PM 69.8 °F 55.4 °F 60% 30.21 in 6.2 mi North 3.5 mph - N/A   Unknown
8:55 PM 68.0 °F 55.4 °F 64% 30.21 in 6.2 mi Variable 2.3 mph - N/A   Unknown
9:00 PM 68 °F 55 °F 55% 30.23 in 28 mi North 2.2 mph - -   Overcast
9:25 PM 68.0 °F 55.4 °F 64% 30.21 in 6.2 mi Variable 2.3 mph - N/A   Unknown
9:55 PM 66.2 °F 53.6 °F 64% 30.21 in 6.2 mi Variable 1.2 mph - N/A   Unknown
10:25 PM 64.4 °F 55.4 °F 73% 30.21 in 6.2 mi Variable 2.3 mph - N/A   Unknown
10:55 PM 64.4 °F 53.6 °F 68% 30.21 in 6.2 mi North 4.6 mph - N/A   Unknown
11:00 PM 65 °F 53 °F 57% 30.24 in 25 mi North 4.5 mph - -   Overcast
11:25 PM 64.4 °F 53.6 °F 68% 30.21 in 6.2 mi North 3.5 mph - N/A   Unknown
11:55 PM 64.4 °F 53.6 °F 68% 30.21 in 6.2 mi Variable 2.3 mph - N/A   Unknown